Location: Newark
(54.8972°N, 99.8189°W)
Time: 06:00:45
(UTC+00:00)

Transit 2A - Visible Passes

Search period start: 15 November 2019 00:00
Search period end: 25 November 2019 00:00
Orbit: 601 x 957 km, 66.7° (Epoch: 14 November)

Date Brightness Start Highest point End Pass type
(mag) Time Alt. Az. Time Alt. Az. Time Alt. Az.
15 Nov 7.3 00:58:31 10° NW 01:01:46 19° N 01:02:09 19° NNE visible
15 Nov 8.3 02:41:52 10° NW 02:42:38 14° NNW 02:42:38 14° NNW visible
16 Nov 7.3 00:24:11 10° NW 00:27:21 18° N 00:28:52 16° NNE visible
16 Nov 7.7 02:07:45 10° NW 02:09:21 19° NNW 02:09:21 19° NNW visible
16 Nov 7.4 23:49:47 10° NW 23:52:56 18° N 23:55:36 11° NE visible
17 Nov 7.2 01:33:38 10° NW 01:36:05 23° N 01:36:05 23° N visible
17 Nov 7.4 23:15:19 10° NW 23:18:30 18° N 23:21:36 10° NE visible
18 Nov 7.0 00:59:29 10° NW 01:02:50 24° NNE 01:02:50 24° NNE visible
18 Nov 8.3 02:42:34 10° NW 02:43:20 15° NW 02:43:20 15° NW visible
19 Nov 7.0 00:25:18 10° NW 00:28:43 21° NNE 00:29:37 20° NNE visible
19 Nov 7.6 02:08:27 10° NW 02:10:06 22° NNW 02:10:06 22° NNW visible
19 Nov 7.2 23:51:04 10° NW 23:54:20 19° N 23:56:25 14° NE visible
20 Nov 6.9 01:34:22 10° NW 01:36:54 29° NNW 01:36:54 29° NNW visible
20 Nov 7.3 23:16:46 10° NW 23:19:55 18° N 23:23:00 10° NE visible
21 Nov 6.5 01:00:15 10° NW 01:03:44 33° NNE 01:03:44 33° NNE visible
21 Nov 8.3 02:43:22 10° NW 02:44:14 16° NW 02:44:14 16° NW visible
22 Nov 6.5 00:26:09 10° NNW 00:29:58 28° NNE 00:30:37 27° NE visible
22 Nov 7.5 02:09:12 10° NW 02:11:07 26° NW 02:11:07 26° NW visible
22 Nov 6.8 23:52:00 10° NNW 23:55:38 24° NNE 23:57:32 18° ENE visible
23 Nov 6.4 01:35:04 10° NW 01:38:02 42° NNW 01:38:02 42° NNW visible
23 Nov 6.9 23:17:50 10° NW 23:21:16 22° NNE 23:24:32 11° ENE visible
24 Nov 5.6 01:00:57 10° NW 01:05:02 56° NNE 01:05:02 56° NNE visible
24 Nov 8.3 02:44:25 10° WNW 02:45:32 16° WNW 02:45:32 16° WNW visible
